When you browse on this site, cookies collect data to enhance your experience and personalize the content and advertising you see.
Visit our Privacy Policy to learn more. By continuing to use the site, you agree to this use of cookies and data.
  • In Hungary
  • List of Countries
  • For 7 days
  • Water Temperature
  • Weather Map
  • News
  • Weather Widgets
  • user-avatar
    Login

    Hourly Weather Kiersiny

    Today, 22 August, Thursday

    Time Temperature Precipitation Wind Pressure Humidity
    00:00 +13°C° 0 mm 2 mps 761 mmHg 88%
    01:00 +13°C° 0 mm 2 mps 762 mmHg 88%
    02:00 +13°C° 0 mm 2 mps 761 mmHg 89%
    03:00 +12°C° 0 mm 2 mps 761 mmHg 90%
    04:00 +12°C° 0 mm 2 mps 761 mmHg 90%
    05:00 +13°C° 0 mm 2 mps 762 mmHg 87%
    06:00 +14°C° 0 mm 2 mps 762 mmHg 84%
    07:00 +16°C° 0 mm 2 mps 763 mmHg 82%
    08:00 +17°C° 0 mm 2 mps 763 mmHg 75%
    09:00 +18°C° 0 mm 2 mps 763 mmHg 69%
    10:00 +20°C° 0 mm 2 mps 763 mmHg 63%
    11:00 +20°C° 0 mm 2 mps 763 mmHg 59%
    12:00 +21°C° 0 mm 2 mps 763 mmHg 56%
    13:00 +22°C° 0 mm 1 mps 763 mmHg 52%
    14:00 +22°C° 0 mm 1 mps 762 mmHg 52%
    15:00 +21°C° 0 mm 2 mps 762 mmHg 52%
    16:00 +21°C° 0 mm 2 mps 762 mmHg 52%
    17:00 +19°C° 0 mm 2 mps 762 mmHg 57%
    18:00 +18°C° 0 mm 2 mps 762 mmHg 63%
    19:00 +16°C° 0 mm 3 mps 761 mmHg 68%
    20:00 +14°C° 0 mm 3 mps 762 mmHg 72%
    21:00 +14°C° 0 mm 3 mps 762 mmHg 77%
    22:00 +13°C° 0 mm 3 mps 762 mmHg 81%
    23:00 +13°C° 0 mm 3 mps 762 mmHg 81%

    Tomorrow, 23 August, Friday

    Time Temperature Precipitation Wind Pressure Humidity
    00:00 +13°C° 0 mm 3 mps 762 mmHg 81%
    01:00 +13°C° 0 mm 3 mps 762 mmHg 81%
    02:00 +13°C° 0 mm 3 mps 762 mmHg 79%
    03:00 +13°C° 0 mm 3 mps 762 mmHg 78%
    04:00 +12°C° 0 mm 3 mps 762 mmHg 77%
    05:00 +14°C° 0 mm 3 mps 762 mmHg 75%
    06:00 +16°C° 0 mm 3 mps 762 mmHg 73%
    07:00 +17°C° 0 mm 3 mps 762 mmHg 70%
    08:00 +19°C° 0 mm 2 mps 762 mmHg 65%
    09:00 +20°C° 0 mm 2 mps 762 mmHg 60%
    10:00 +23°C° 0 mm 2 mps 762 mmHg 55%
    11:00 +23°C° 0 mm 2 mps 762 mmHg 52%
    12:00 +24°C° 0 mm 1 mps 762 mmHg 49%
    13:00 +25°C° 0 mm 1 mps 762 mmHg 46%
    14:00 +25°C° 0 mm 1 mps 761 mmHg 46%
    15:00 +25°C° 0 mm 1 mps 761 mmHg 45%
    16:00 +23°C° 0 mm 0 mps 761 mmHg 45%
    17:00 +23°C° 0 mm 1 mps 761 mmHg 51%
    18:00 +21°C° 0 mm 1 mps 761 mmHg 57%
    19:00 +19°C° 0 mm 1 mps 760 mmHg 63%
    20:00 +18°C° 0 mm 2 mps 761 mmHg 65%
    21:00 +17°C° 0 mm 2 mps 761 mmHg 67%
    22:00 +16°C° 0 mm 2 mps 761 mmHg 70%
    23:00 +16°C° 0 mm 2 mps 761 mmHg 72%

    Day after tomorrow, 24 August, Saturday

    Time Temperature Precipitation Wind Pressure Humidity
    00:00 +16°C° 0 mm 2 mps 760 mmHg 74%
    01:00 +15°C° 0 mm 2 mps 760 mmHg 76%
    02:00 +15°C° 0 mm 2 mps 760 mmHg 78%
    03:00 +15°C° 0 mm 2 mps 760 mmHg 79%
    04:00 +15°C° 0 mm 2 mps 760 mmHg 81%
    05:00 +16°C° 0 mm 2 mps 760 mmHg 78%
    06:00 +17°C° 0 mm 2 mps 760 mmHg 74%
    07:00 +18°C° 0 mm 2 mps 760 mmHg 71%
    08:00 +21°C° 0 mm 1 mps 760 mmHg 65%
    09:00 +22°C° 0 mm 1 mps 760 mmHg 60%
    10:00 +24°C° 0 mm 1 mps 760 mmHg 54%
    11:00 +25°C° 0 mm 1 mps 760 mmHg 51%
    12:00 +25°C° 0 mm 1 mps 760 mmHg 48%
    13:00 +26°C° 0 mm 2 mps 759 mmHg 46%
    14:00 +26°C° 0 mm 2 mps 759 mmHg 47%
    15:00 +26°C° 0 mm 2 mps 759 mmHg 48%
    16:00 +26°C° 0 mm 2 mps 759 mmHg 49%
    17:00 +24°C° 0 mm 2 mps 759 mmHg 56%
    18:00 +21°C° 0 mm 3 mps 759 mmHg 63%
    19:00 +19°C° 0 mm 3 mps 759 mmHg 70%
    20:00 +18°C° 0 mm 3 mps 759 mmHg 72%
    21:00 +17°C° 0 mm 3 mps 759 mmHg 74%
    22:00 +17°C° 0 mm 3 mps 759 mmHg 76%
    23:00 +16°C° 0 mm 3 mps 759 mmHg 77%

    25 August, Sunday

    Time Temperature Precipitation Wind Pressure Humidity
    00:00 +16°C° 0 mm 2 mps 759 mmHg 77%
    01:00 +16°C° 0 mm 2 mps 759 mmHg 78%
    02:00 +15°C° 0 mm 2 mps 759 mmHg 78%
    03:00 +14°C° 0 mm 3 mps 759 mmHg 79%
    04:00 +14°C° 0 mm 3 mps 758 mmHg 80%
    05:00 +16°C° 0 mm 3 mps 759 mmHg 78%
    06:00 +17°C° 0 mm 3 mps 759 mmHg 75%
    07:00 +18°C° 0 mm 3 mps 759 mmHg 73%
    08:00 +20°C° 0 mm 4 mps 759 mmHg 68%
    09:00 +21°C° 0 mm 4 mps 759 mmHg 63%
    10:00 +23°C° 0 mm 4 mps 759 mmHg 58%
    11:00 +25°C° 0 mm 4 mps 759 mmHg 56%
    12:00 +26°C° 0 mm 4 mps 759 mmHg 53%
    13:00 +26°C° 0 mm 4 mps 759 mmHg 51%
    14:00 +26°C° 0 mm 4 mps 759 mmHg 52%
    15:00 +26°C° 0 mm 4 mps 759 mmHg 53%
    16:00 +26°C° 0 mm 4 mps 758 mmHg 54%
    17:00 +23°C° 0 mm 4 mps 758 mmHg 61%
    18:00 +21°C° 0 mm 4 mps 758 mmHg 68%
    19:00 +20°C° 0 mm 4 mps 758 mmHg 75%
    20:00 +19°C° 0 mm 4 mps 759 mmHg 76%
    21:00 +18°C° 0 mm 4 mps 759 mmHg 77%
    22:00 +18°C° 0 mm 4 mps 759 mmHg 78%
    23:00 +17°C° 0 mm 4 mps 759 mmHg 79%

    26 August, Monday

    Time Temperature Precipitation Wind Pressure Humidity
    00:00 +17°C° 0 mm 4 mps 759 mmHg 80%
    01:00 +15°C° 0 mm 4 mps 759 mmHg 80%
    02:00 +15°C° 0 mm 4 mps 758 mmHg 80%
    03:00 +15°C° 0 mm 4 mps 758 mmHg 81%
    04:00 +15°C° 0 mm 4 mps 758 mmHg 81%
    05:00 +17°C° 0 mm 4 mps 758 mmHg 78%
    06:00 +18°C° 0 mm 4 mps 758 mmHg 75%
    07:00 +19°C° 0 mm 4 mps 758 mmHg 72%
    08:00 +20°C° 0 mm 4 mps 758 mmHg 67%
    09:00 +22°C° 0 mm 4 mps 758 mmHg 63%
    10:00 +25°C° 0 mm 4 mps 758 mmHg 59%
    11:00 +25°C° 0 mm 4 mps 758 mmHg 58%
    12:00 +26°C° 0 mm 4 mps 758 mmHg 57%
    13:00 +27°C° 0 mm 4 mps 758 mmHg 56%
    14:00 +27°C° 0 mm 4 mps 757 mmHg 58%
    15:00 +27°C° 0 mm 4 mps 757 mmHg 60%
    16:00 +26°C° 0 mm 3 mps 757 mmHg 61%
    17:00 +25°C° 0 mm 3 mps 757 mmHg 65%
    18:00 +24°C° 0 mm 3 mps 757 mmHg 69%
    19:00 +21°C° 0 mm 3 mps 757 mmHg 72%
    20:00 +21°C° 0 mm 3 mps 757 mmHg 74%
    21:00 +20°C° 0 mm 4 mps 757 mmHg 75%
    22:00 +19°C° 0 mm 4 mps 757 mmHg 76%
    23:00 +19°C° 0 mm 4 mps 757 mmHg 75%

    27 August, Tuesday

    Time Temperature Precipitation Wind Pressure Humidity
    00:00 +19°C° 0 mm 4 mps 757 mmHg 75%
    01:00 +19°C° 0 mm 4 mps 757 mmHg 74%
    02:00 +18°C° 0 mm 3 mps 757 mmHg 76%
    03:00 +18°C° 0 mm 3 mps 756 mmHg 78%
    04:00 +18°C° 0 mm 3 mps 756 mmHg 79%
    05:00 +19°C° 0 mm 3 mps 756 mmHg 78%
    06:00 +20°C° 0 mm 3 mps 756 mmHg 76%
    07:00 +21°C° 0 mm 4 mps 756 mmHg 74%
    08:00 +24°C° 0 mm 3 mps 756 mmHg 70%
    09:00 +25°C° 0 mm 3 mps 756 mmHg 65%
    10:00 +27°C° 0 mm 3 mps 756 mmHg 60%
    11:00 +28°C° 0 mm 3 mps 756 mmHg 57%
    12:00 +29°C° 0 mm 2 mps 756 mmHg 53%
    13:00 +30°C° 0 mm 2 mps 756 mmHg 50%
    14:00 +30°C° 0 mm 2 mps 756 mmHg 51%
    15:00 +30°C° 0 mm 2 mps 755 mmHg 51%
    16:00 +30°C° 0 mm 2 mps 755 mmHg 52%
    17:00 +28°C° 0 mm 2 mps 755 mmHg 58%
    18:00 +26°C° 0 mm 3 mps 755 mmHg 64%
    19:00 +24°C° 0 mm 3 mps 755 mmHg 70%
    20:00 +24°C° 0 mm 3 mps 755 mmHg 72%
    21:00 +22°C° 0 mm 3 mps 755 mmHg 74%
    22:00 +21°C° 0 mm 3 mps 755 mmHg 76%
    23:00 +21°C° 0 mm 3 mps 755 mmHg 77%
    Show more